Regional Weather Roundup
Issued by NWS

Home | Current Version | Previous Version | Text Only | Print | Product List | Glossary Off
Versions: 1 2 3 4 5 6 7 8 9 10 11 12 13 14 15 16 17 18 19 20 21 22 23 24 25 26 27 28

000
ASUS45 KSLC 220710
RWRUT

UTAH REGIONAL WEATHER ROUNDUP
NATIONAL WEATHER SERVICE SALT LAKE CITY UT
100 AM MDT SUN APR 22 2018

UTZ001>011-023>025-220800-

NORTHERN UTAH

CITY           SKY/WX    TMP DP  RH WIND       PRES   REMARKS
BRIGHAM CITY   CLEAR     48  36  62 CALM      30.16S
HILL AFB       CLEAR     51  27  40 NE7       30.16S
LOGAN          CLEAR     51  35  54 CALM      30.17R
OGDEN          CLEAR     49  29  46 MISG      30.15R
SALT LAKE CITY CLEAR     53  31  42 SE8       30.14S
TOOELE VALLEY  CLEAR     45  34  65 S7        30.15S
WENDOVER       CLEAR     53  30  41 W3        30.12S
HEBER CITY       N/A     34  25  69 E5        30.21S WCI  30
WEST JORDAN    CLEAR     48  34  58 SW8       30.16S

$$

UTZ011>015-024>027-220800-

CENTRAL/NORTHEAST UTAH

CITY           SKY/WX    TMP DP  RH WIND       PRES   REMARKS
PROVO AIRPORT  CLEAR     46  36  68 CALM      30.17F
MOAB/CANYONLAN CLEAR     54  33  45 SE9       30.13R
DELTA          CLEAR     43  34  70 CALM      30.16S
PRICE          CLEAR     44  26  49 N3        30.18R
ROOSEVELT      CLEAR     43  32  65 SW7       30.17S
VERNAL         CLEAR     44  35  70 NW5       30.16R

$$

UTZ013>016-019>022-027-220800-

SOUTHERN UTAH

CITY           SKY/WX    TMP DP  RH WIND       PRES   REMARKS
BRYCE CANYON   CLEAR     32  23  69 W7        30.28S WCI  26
CEDAR CITY     CLEAR     37  30  75 CALM      30.17S
MILFORD        CLEAR     46  33  60 SW10      30.16F
ST GEORGE      SUNNY     62  25  24 CALM      30.05S
HANKSVILLE     CLEAR     50  23  34 CALM      30.15R
BLANDING         N/A     48  27  44 N10       30.26S

$$

REGIONAL REPORTS     COLORADO/ARIZONA

CITY           SKY/WX    TMP DP  RH WIND       PRES   REMARKS
CRAIG, CO      CLEAR     39  34  82 E6        30.21R WCI  35
GRAND JUNCTION CLEAR     47  35  63 SE10      30.18R
RIFLE, CO      CLEAR     39  35  86 CALM      30.24R
MONTROSE, CO   CLEAR     41  31  67 SE6       30.24R
CORTEZ, CO     CLEAR     37  22  54 NE8       30.20F WCI  31
COLORADO CITY    N/A     45  27  49 S7        30.16S
PAGE, AZ       CLEAR     57  27  31 CALM      30.10S
GRAND CANYON   PTCLDY    32  23  69 CALM      30.24R
KINGMAN, AZ    MOCLDY    60  22  23 SE8       30.06S
FLAGSTAFF, AZ  PTCLDY    33  18  53 CALM      30.24S

$$

REGIONAL REPORTS    NEVADA/IDAHO/WYOMING

CITY           SKY/WX    TMP DP  RH WIND       PRES   REMARKS
LAS VEGAS, NV  PTCLDY    72  28  19 W6        29.98F
ELY, NY        CLEAR     37  20  50 S12       30.21S WCI  29
ELKO, NV       CLEAR     44  32  62 CALM      30.15F
POCATELLO, ID  CLEAR     55  28  35 SW13      30.14S
BURLEY, ID     CLEAR     42  33  70 S7        30.13S
FORT BRIDGER,    N/A     45  26  47 SW10      30.27R
EVANSTON, WY   CLEAR     43  24  47 S5        30.26R
ROCK SPRINGS,  CLEAR     45  25  45 W14       30.20R
KEMMERER, WY   CLEAR     37  28  70 NW9       30.25R WCI  31

$$




USA.gov is the U.S. government's official web portal to all federal, state and local government web resources and services.